Weather History for Vitoria, Spain

Change the Weather History Date:

Tuesday, September 3, 2013

  Actual Average Record
Temperature  
Mean Temperature 64 °F -  
Max Temperature 86 °F 73 °F 96 °F (2005)
Min Temperature 41 °F 48 °F 41 °F (2013)
Degree Days  
Heating Degree Days 2    
Growing Degree Days 14 (Base 50)    
Moisture  
Dew Point 49 °F    
Average Humidity 65    
Maximum Humidity 100    
Minimum Humidity 23    
Precipitation  
Precipitation 0.00 in - - ()
Sea Level Pressure  
Sea Level Pressure 30.22 in    
Wind  
Wind Speed 1 mph ()    
Max Wind Speed 6 mph    
Max Gust Speed -    
Averages and records for this station are not official NWS values.
T = Trace of Precipitation, MM = Missing Value Source: Averaged Metar Reports

Daily Weather History Graph

Daily Weather History Graph

Search for Another Location

Airport:

Trip Planner

Search our weather history database for the weather conditions in past years. The results will help you decide how hot, cold, wet, or windy it might be!

Date:

Astronomy

Sep. 03, 2013 Rise Set
Actual Time 7:37 AM CEST 8:41 PM CEST
Civil Twilight 7:08 AM CEST 9:10 PM CEST
Nautical Twilight 6:33 AM CEST 9:45 PM CEST
Astronomical Twilight 5:57 AM CEST 10:21 PM CEST
Moon 5:36 AM CEST (9/3) 7:22 PM CEST (9/3)
Length of Visible Light 14h 02m
Length of Day
13h 04m
Waning Crescent, 4% of the Moon is Illuminated
Sep 3
Waning Crescent
Sep 5
New
Sep 12
First Quarter
Sep 19
Full
Sep 27
Last Quarter

Hourly Weather History & Observations

Time (CEST) Temp. Heat Index Dew Point Humidity Pressure Visibility Wind Dir Wind Speed Gust Speed Precip Events Conditions
12:00 AM 53.6 °F - 50.0 °F 88% 30.30 in - South 1.2 mph - N/A   Clear
12:30 AM 53.6 °F - 50.0 °F 88% 30.30 in - Calm Calm - N/A   Clear
1:00 AM 50.0 °F - 46.4 °F 87% 30.27 in - West 1.2 mph - N/A   Clear
1:30 AM 50.0 °F - 48.2 °F 94% 30.27 in - Calm Calm - N/A   Clear
2:00 AM 50.0 °F - 48.2 °F 94% 30.27 in - Calm Calm - N/A   Clear
2:30 AM 48.2 °F - 46.4 °F 93% 30.27 in - Calm Calm - N/A   Clear
3:00 AM 46.4 °F - 46.4 °F 100% 30.27 in - Calm Calm - N/A   Clear
3:30 AM 46.4 °F - 44.6 °F 93% 30.27 in - East 2.3 mph - N/A   Clear
4:00 AM 48.2 °F - 46.4 °F 93% 30.24 in - NE 3.5 mph - N/A   Clear
4:30 AM 46.4 °F - 44.6 °F 93% 30.24 in - Calm Calm - N/A   Clear
5:00 AM 46.4 °F - 44.6 °F 93% 30.24 in - Calm Calm - N/A   Clear
5:30 AM 44.6 °F - 42.8 °F 93% 30.24 in - Calm Calm - N/A   Clear
6:00 AM 44.6 °F - 44.6 °F 100% 30.24 in - Calm Calm - N/A   Clear
6:30 AM 44.6 °F - 44.6 °F 100% 30.24 in - WNW 1.2 mph - N/A   Clear
7:30 AM 41.0 °F - 41.0 °F 100% 30.24 in - Calm Calm - N/A   Clear
8:00 AM 42.8 °F - 42.8 °F 100% 30.24 in - Calm Calm - N/A   Clear
8:30 AM 46.4 °F - 46.4 °F 100% 30.24 in - Calm Calm - N/A   Clear
9:00 AM 50.0 °F - 48.2 °F 94% 30.27 in - Calm Calm - N/A   Clear
9:30 AM 53.6 °F - 50.0 °F 88% 30.27 in - Calm Calm - N/A   Clear
10:00 AM 57.2 °F - 51.8 °F 82% 30.27 in - Variable 1.2 mph - N/A   Clear
10:30 AM 60.8 °F - 51.8 °F 72% 30.27 in - Variable 1.2 mph - N/A   Clear
11:00 AM 64.4 °F - 53.6 °F 68% 30.27 in - Variable 2.3 mph - N/A   Clear
11:30 AM 68.0 °F - 51.8 °F 56% 30.27 in - West 1.2 mph - N/A   Clear
12:00 PM 71.6 °F - 53.6 °F 53% 30.24 in - Calm Calm - N/A   Clear
12:30 PM 73.4 °F - 55.4 °F 53% 30.24 in - WNW 1.2 mph - N/A   Clear
1:00 PM 77.0 °F - 55.4 °F 47% 30.24 in - West 1.2 mph - N/A   Clear
1:30 PM 78.8 °F - 55.4 °F 44% 30.21 in - Variable 2.3 mph - N/A   Clear
2:00 PM 80.6 °F 80.3 °F 53.6 °F 39% 30.21 in - ENE 1.2 mph - N/A   Clear
2:30 PM 82.4 °F 81.4 °F 53.6 °F 37% 30.21 in - NNE 1.2 mph - N/A   Clear
3:00 PM 84.2 °F - 48.2 °F 29% 30.21 in - SSW 2.3 mph - N/A   Clear
3:30 PM 86.0 °F - 46.4 °F 25% 30.18 in - SSE 3.5 mph - N/A   Clear
4:00 PM 86.0 °F - 48.2 °F 27% 30.18 in - NE 2.3 mph - N/A   Clear
4:30 PM 86.0 °F - 48.2 °F 27% 30.18 in - East 3.5 mph - N/A   Clear
5:00 PM 86.0 °F - 46.4 °F 25% 30.18 in - NE 3.5 mph - N/A   Clear
5:30 PM 86.0 °F - 48.2 °F 27% 30.15 in - ESE 5.8 mph - N/A   Clear
6:00 PM 86.0 °F - 48.2 °F 27% 30.15 in - East 1.2 mph - N/A   Clear
6:30 PM 86.0 °F - 44.6 °F 23% 30.15 in - ENE 1.2 mph - N/A   Clear
7:00 PM 86.0 °F - 44.6 °F 23% 30.15 in - Variable 1.2 mph - N/A   Clear
7:30 PM 84.2 °F - 48.2 °F 29% 30.15 in - Variable 2.3 mph - N/A   Clear
8:00 PM 82.4 °F - 48.2 °F 30% 30.15 in - East 2.3 mph - N/A   Clear
8:30 PM 77.0 °F - 46.4 °F 34% 30.15 in - ENE 4.6 mph - N/A   Clear
9:00 PM 73.4 °F - 53.6 °F 50% 30.15 in - NNE 4.6 mph - N/A   Clear
9:30 PM 68.0 °F - 53.6 °F 60% 30.18 in - Variable 1.2 mph - N/A   Clear
10:00 PM 66.2 °F - 51.8 °F 60% 30.18 in - ENE 2.3 mph - N/A   Clear
10:30 PM 64.4 °F - 51.8 °F 64% 30.18 in - NE 2.3 mph - N/A   Clear
11:00 PM 62.6 °F - 51.8 °F 68% 30.18 in - ENE 1.2 mph - N/A   Clear
11:30 PM 62.6 °F - 51.8 °F 68% 30.18 in - Calm Calm - N/A   Clear